Regional Weather Roundup
Issued by NWS

Home | Current Version | Previous Version | Text Only | Print | Product List | Glossary On
Versions: 1 2 3 4 5 6 7 8 9 10 11 12 13 14 15 16 17 18 19 20 21 22 23 24 25 26 27 28 29 30 31 32 33 34 35 36 37 38 39 40 41 42 43 44 45 46 47 48 49 50
047
ASUS43 KOAX 170902
RWRNE

WEATHER ROUNDUP FOR NEBRASKA
NATIONAL WEATHER SERVICE OMAHA NE
300 AM CST SUN DEC 17 2017

NOTES: SATELLITE DATA IS BEING USED TO AUGMENT CLOUD COVER ABOVE
       12000 FEET.
       "FAIR" INDICATES FEW OR NO CLOUDS BELOW 12,000 FEET WITH NO
       SIGNIFICANT WEATHER AND/OR OBSTRUCTIONS TO VISIBILITY.


NEZ001>004-019>022-054>056-171000-
NEBRASKA PANHANDLE

CITY           SKY/WX    TMP DP  RH WIND       PRES   REMARKS
SCOTTSBLUFF    CLOUDY    31  28  89 E7        29.99F WCI  24
ALLIANCE       CLOUDY    30  28  92 N6        29.99R WCI  24
CHADRON        CLOUDY    29  27  92 CALM      30.04R
GORDON         CLOUDY    31  28  88 N5        30.00S WCI  27
KIMBALL        CLOUDY    29  29  99 E7        29.95S FOG     WCI  22
SIDNEY         CLOUDY    30  29  96 NE10      29.97R FOG     WCI  21
$$

NEZ057>060-069>072-079>082-171000-
SOUTHWEST NEBRASKA

CITY           SKY/WX    TMP DP  RH WIND       PRES   REMARKS
NORTH PLATTE   CLOUDY    37  33  85 NE7       30.00R WCI  32
IMPERIAL       MIX PCPN  34  34 100 NE9       29.98R WCI  27
LEXINGTON      CLOUDY    35  31  87 NE13      29.97F WCI  26
MCCOOK         CLOUDY    36  32  85 NE12      29.96R WCI  28
OGALLALA       CLOUDY    36  32  87 NE7       30.00R WCI  30
$$

NEZ005>010-023>029-035>040-094-171000-
NORTH CENTRAL NEBRASKA

CITY           SKY/WX    TMP DP  RH WIND       PRES   REMARKS
VALENTINE      CLOUDY    34  30  85 N5        30.01S WCI  30
AINSWORTH      CLOUDY    34  33  97 NE3       30.01R
BROKEN BOW     CLOUDY    36  31  82 NE10      30.00R WCI  28
O`NEILL        CLOUDY    33  32  98 CALM      30.04R
ORD            CLOUDY    35  31  85 N7        30.00R WCI  29
THEDFORD       CLOUDY    35  32  88 NE7       30.02R WCI  29
$$

NEZ041-046>049-061>064-073>077-083>087-171000-
SOUTH CENTRAL NEBRASKA

CITY           SKY/WX    TMP DP  RH WIND       PRES   REMARKS
GRAND ISLAND   CLOUDY    30  29  96 N15       29.96S WCI  19
AURORA         CLOUDY    31  29  92 N15       29.95F WCI  20
HASTINGS       CLOUDY    32  28  85 N14       29.93F WCI  22
HEBRON         CLOUDY    37  28  72 NE3       29.90F
HOLDREGE       CLOUDY    31  31  97 N14G20    29.93F WCI  21
KEARNEY        CLOUDY    30  29  96 N17       29.94F WCI  18
$$

NEZ011>018-030>034-042>045-171000-
NORTHEAST NEBRASKA

CITY           SKY/WX    TMP DP  RH WIND       PRES   REMARKS
NORFOLK        CLOUDY    31  28  89 N8        30.00F WCI  23
ALBION         CLOUDY    33  30  89 N10       29.99F WCI  25
BLAIR          CLOUDY    32  28  86 N14       29.94F WCI  22
COLUMBUS       PTCLDY    30  27  88 N9        29.99F WCI  22
FREMONT        CLOUDY    30  27  87 N5        29.97F WCI  25
TEKAMAH        PTCLDY    27  22  81 N14       29.99F WCI  16
WAYNE          CLOUDY    28  28  96 N6        30.03S WCI  22
$$

NEZ050>053-065>068-078-088>093-171000-
SOUTHEAST NEBRASKA

CITY           SKY/WX    TMP DP  RH WIND       PRES   REMARKS
LINCOLN        MOCLDY    34  27  75 N8        29.95F WCI  27
OMAHA EPPLEY   CLOUDY    30  24  78 N9        29.97F WCI  22
BEATRICE       CLOUDY    36  28  71 NE9       29.91F WCI  29
FALLS CITY     CLOUDY    39  26  59 CALM      29.94R
NEBRASKA CITY  CLOUDY    34  27  74 NE3       29.93F
PLATTSMOUTH    CLOUDY    33  29  85 N5        29.93F WCI  29
$$

NEZ044-045-051>053-067-171000-
OMAHA AREA

CITY           SKY/WX    TMP DP  RH WIND       PRES   REMARKS
OMAHA EPPLEY   CLOUDY    30  24  78 N9        29.97F WCI  22
BLAIR          CLOUDY    32  28  86 N14       29.94F WCI  22
FREMONT        CLOUDY    30  27  87 N5        29.97F WCI  25
MILLARD        PTCLDY    35  29  79 CALM      29.96S
OFFUTT AFB     PTCLDY    33  27  77 N7        29.94F WCI  27
PLATTSMOUTH    CLOUDY    33  29  85 N5        29.93F WCI  29
WAHOO          FAIR      31  28  85 N10       29.96F WCI  23
$$




USA.gov is the U.S. government's official web portal to all federal, state and local government web resources and services.